User: anonymous   Login
Location: Tierz
(42.1336°N, 0.3549°W)
Time: 00:08:48
(UTC+00:00)
Language:

Cosmos 1455 - Orbit

View from above orbital plane
View from above orbital plane
View from above satellite
View from above satellite

Ground track
Ground track

The orbit data is extracted from the following two-line orbital elements,

1 14032U 83037A   21018.33047339  .00000712  00000-0  32708-4 0  9999
2 14032  82.5142 230.9698 0017974  43.1880 317.0760 15.18586524 60031
Epoch (UTC): 18 January 2021 07:55:52
Eccentricity: 0.0017974
inclination: 82.5142°
perigee height: 498 km
apogee height: 522 km
right ascension of ascending node: 230.9698°
argument of perigee: 43.1880°
revolutions per day: 15.18586524
mean anomaly at epoch: 317.0760°
orbit number at epoch: 6003

The dashed part of the orbit path shows where the satellite is in the earth's shadow,  

DLR